Regional Weather Roundup
Issued by NWS New Orleans/Baton Rouge, LA

Home | Current Version | Previous Version | Graphics & Text | Print | Product List | Glossary On
Versions: 1 2 3 4 5 6 7 8 9 10 11 12 13 14 15 16 17 18 19 20 21 22 23 24 25 26 27 28 29 30 31 32 33 34 35 36 37 38 39 40 41 42 43 44 45 46 47 48 49 50
113
ASUS44 KLIX 241910
RWRLIX
NEW ORLEANS REGIONAL WEATHER ROUNDUP
NATIONAL WEATHER SERVICE NEW ORLEANS LA
200 PM CDT FRI OCT 24 2014

NOTE: "FAIR" INDICATES FEW OR NO CLOUDS BELOW 12,000 FEET WITH NO
      SIGNIFICANT WEATHER AND/OR OBSTRUCTIONS TO VISIBILITY.
      SKY/WX - SKY CONDITION AND SIGNIFICANT WEATHER.
      TMP - AIR TEMPERATURE.     DP    - DEWPOINT TEMPERATURE.
      RH  - RELATIVE HUMIDITY.   PRES  - PRESSURE.
      HI  - HEAT INDEX.          WCI   - WIND CHILL INDEX.

*  THESE STATIONS ARE NOT NWS OR FAA STATIONS AND ARE NOT UNDER
   NWS QUALITY CONTROL.

LAZ038-040-048-061>063-065>067-069-242000-
SOUTHEAST LOUISIANA

CITY           SKY/WX    TMP DP  RH WIND       PRES   REMARKS
N.O. AUDUBON   NOT AVBL
N.O. INTL ARPT MOSUNNY   74  44  34 N8        30.06F
N.O. LAKEFRONT SUNNY     70  52  52 W8        30.06F
N.O. DOWNTOWN*   N/A     73  45  35 NW8       30.06F
SLIDELL        SUNNY     75  46  35 N5        30.05F
BATON ROUGE    SUNNY     75  43  31 VRB7      30.08F
BOOTHVILLE     SUNNY     72  53  51 N7        30.05F
BELLE CHASSE   SUNNY     76  41  28 VRB5      30.04F
BOGALUSA*        N/A     77  36  22 N8G18     30.08F
NEW ROADS*       N/A     72  51  47 NW6       30.09F
GONZALES*        N/A     74  47  38 NW6       30.07F
HAMMOND*       SUNNY     77  37  24 N6        30.08F
HOUMA*         SUNNY     75  48  38 N8        30.06F
PORT FOURCHON* CLEAR     75  48  38 N8        30.08F

$$

MSZ070-080>082-242000-
SOUTHERN MISSISSIPPI

CITY           SKY/WX    TMP DP  RH WIND       PRES   REMARKS
MCCOMB         SUNNY     73  43  33 NW10      30.08F
GULFPORT       SUNNY     76  44  32 CALM      30.03F
BILOXI         SUNNY     76  44  32 N7        30.03F
PASCAGOULA     SUNNY     76  44  32 CALM      30.02F
STENNIS ARPT*  SUNNY     75  37  25 N7        30.05F

$$

COASTAL OBSERVATIONS
LAKE AND NEARSHORE STATIONS

STATION/POSITION TIME  TEMP    WIND        PRES    WAVE
                       AIR SEA DIR/SP/G            HT/PER
                 (UTC) (F)     (DEG/KT/KT) (MB)    (FT/S)
PASCAGOULA       1900   75      50/  8/ 10 1016.1
WAVELAND YACHT   1900   71     340/  6/  8 1016.5
GRAND ISLE       1900   72 73   20/  4/  6 1018.0
SOUTHWEST PASS   1900   77 81  360/  8/ 10 1017.5
NEW CANAL        1900   68 71  310/  2/  4 1018.3
SHELL BEACH      1900   68 66  330/  4/  5 1017.6

OFFSHORE STATIONS

STATION/POSITION TIME  TEMP    WIND        PRES    WAVE
                       AIR SEA DIR/SP/G            HT/PER
                 (UTC) (F)     (DEG/KT/KT) (MB)    (FT/S)
64 S DAUPHIN ISL 1825   71 80  350/  8/ 10 1017.0    3/ 6

$$




USA.gov is the U.S. government's official web portal to all federal, state and local government web resources and services.